Preview of NWS' New Version of Forecast
This preview is not operational and should not be used for support decisions.

Regional Weather Roundup (RWR)

Issued by Burlington, VT (BTV)

                            
000
ASUS41 KBTV 241610
RWRBTV
VERMONT REGIONAL WEATHER ROUNDUP
NATIONAL WEATHER SERVICE BURLINGTON VT
1200 PM EDT WED APR 24 2019

NOTE: "FAIR" INDICATES FEW OR NO CLOUDS BELOW 12,000 FEET WITH NO 
SIGNIFICANT WEATHER AND/OR OBSTRUCTIONS TO VISIBILITY.

* THESE REPORTS ARE NOT UNDER NWS QUALITY CONTROL AND/OR DO NOT
  REPORT WEATHER SUCH AS PRECIPITATION AND FOG.

VTZ001>019-241700-
_____VERMONT_____

  
CITY           SKY/WX    TMP DP  RH WIND       PRES   REMARKS
BURLINGTON     LGT RAIN  48  36  63 W7        29.73R                  
MONTPELIER     CLOUDY    47  36  65 NW7       29.72S                  
MORRISVILLE    CLOUDY    45  39  79 NE5       29.71S                  
ST. JOHNSBURY*   N/A     49  39  68 MISG      29.67R                  
LYNDONVILLE*   CLOUDY    44  38  82 W7G16     29.70R                  
MIDDLEBURY*    CLOUDY    47  35  61 SW6       29.74S                  
RUTLAND*       CLOUDY    47  37  68 W9G16     29.75R                  
SPRINGFIELD    CLOUDY    52  37  56 W8G17     29.72S                  
HIGHGATE*      LGT RAIN  43  41  93 SW5       29.73R                  
NEWPORT*       DRIZZLE   42  38  84 SW13      29.70R                  
BENNINGTON     CLOUDY    47  36  65 VRB7G21   29.79R                  
LAKE EDEN*       N/A     41 N/A N/A SW6         N/A                   

_____LAKE CHAMPLAIN_____

  
CITY           SKY/WX    TMP DP  RH WIND       PRES   REMARKS
COLCHESTER RF*   N/A     46  36  66 W13         N/A                   

$$

NYZ007-026>031-035-052-083-087-241700-
_____NORTHERN NEW YORK_____

  
CITY           SKY/WX    TMP DP  RH WIND       PRES   REMARKS
PLATTSBURGH    CLOUDY    49  35  58 VRB3G18   29.72R                  
SARANAC LAKE   CLOUDY    37  35  92 W8G22     29.72R FOG     WCI  31  
MASSENA        LGT RAIN  44  32  62 W15       29.78R                  
OGDENSBURG*    CLOUDY    45  37  76 W12       29.78R                  
POTSDAM*       CLOUDY    43  41  93 SW10      29.78R FOG              
WATERTOWN      CLOUDY    41  37  86 SW18G25   29.86R                  
FT DRUM        CLOUDY    40  35  82 W13G22    29.82R                  
ALBANY         PTSUNNY   51  37  58 NW15G22   29.83R                  
GLENS FALLS    CLOUDY    49  36  61 W14G23    29.78R                  

$$
NHZ002-005-011-241700-
_____NEW HAMPSHIRE_____

  
CITY           SKY/WX    TMP DP  RH WIND       PRES   REMARKS
LEBANON        CLOUDY    55  37  50 SW14G21   29.70R                  
KEENE          FAIR      55  39  54 W10G17    29.73R                  
PLYMOUTH       CLOUDY    54  41  63 W8        29.68R                  
WHITEFIELD     LGT RAIN  50  39  66 W9        29.66R                  

$$

_____REGIONAL QUEBEC LOCATIONS_____

  
CITY           SKY/WX    TMP DP  RH WIND       PRES   REMARKS
MONTREAL       DRIZZLE   43  41  93 SW15G21   29.69R                  
QUEBEC CITY    DRIZZLE   37  36  93 E23G32    29.74R WCI  26          
SHERBROOKE     LGT RAIN  43  39  87 W10       29.68R                  

_____REGIONAL ONTARIO LOCATIONS_____

  
CITY           SKY/WX    TMP DP  RH WIND       PRES   REMARKS
OTTAWA         LGT RAIN  41  39  93 W17       29.78R                  

______KEY______
VSB  - VISIBILITY IN MILES
WCI  - WIND CHILL INDEX
HX   - HEAT INDEX
$$
NNNN